User: anonymous   Login
Location: Unspecified
(0.0000°N, 0.0000°E)
Time: 17:40:07
(UTC+02:00)
Language:

YAOGAN 1 - Orbit

View from above orbital plane
View from above orbital plane
View from above satellite
View from above satellite

Ground track
Ground track

The orbit data is extracted from the following two-line orbital elements,

1 29092U 06015A   17232.91081962 +.00000092 +00000-0 +17997-4 0  9993
2 29092 098.0024 244.3428 0001409 089.8917 270.2458 14.82824492611853
Epoch (UTC): 20 August 2017 21:51:34
Eccentricity: 0.0001409
inclination: 98.0024°
perigee height: 619 km
apogee height: 621 km
right ascension of ascending node: 244.3428°
argument of perigee: 89.8917°
revolutions per day: 14.82824492
mean anomaly at epoch: 270.2458°
orbit number at epoch: 61185

The dashed part of the orbit path shows where the satellite is in the earth's shadow,  

DLR